G4WLC-1 Weather Reports


time (UTC)temp
F
wind
direction
speed
knots
gust
knots
rain 1hr
in
rain 24hr
in
rain mn
in
humidity
%
barometer
mb
20260510201749 47 272 0.0 0.9 0.00 0.00 0.00 68 1014.7
20260510201249 48 333 0.0 0.9 0.00 0.00 0.00 68 1014.7
20260510200749 48 326 0.0 0.0 0.00 0.00 0.00 67 1014.8
20260510200249 48 328 0.0 0.0 0.00 0.00 0.00 66 1014.9
20260510195749 49 323 0.0 0.9 0.00 0.00 0.00 66 1014.8
20260510195249 49 359 0.0 0.0 0.00 0.00 0.00 66 1014.6
20260510194749 49 359 0.0 0.0 0.00 0.00 0.00 65 1014.7
20260510194249 50 345 0.0 0.0 0.00 0.00 0.00 65 1014.8
20260510193749 50 7 0.0 3.5 0.00 0.00 0.00 64 1014.7
20260510193249 50 9 0.0 0.9 0.00 0.00 0.00 66 1014.8
20260510192749 50 326 0.0 0.9 0.00 0.00 0.00 65 1014.9
20260510192249 51 22 0.0 0.9 0.00 0.00 0.00 63 1015.0
20260510191749 51 304 0.0 1.7 0.00 0.00 0.00 62 1014.9
20260510191249 51 347 0.0 0.9 0.00 0.00 0.00 65 1014.8
20260510190749 50 348 0.0 0.9 0.00 0.00 0.00 65 1014.8
20260510190249 51 23 0.0 0.9 0.00 0.00 0.00 65 1014.7
20260510185749 51 261 0.0 0.9 0.00 0.00 0.00 64 1014.7
20260510185249 51 11 0.0 3.5 0.00 0.00 0.00 62 1014.8
20260510184749 52 319 0.0 2.6 0.00 0.00 0.00 62 1014.8
20260510184249 52 326 0.0 2.6 0.00 0.00 0.00 62 1014.8
20260510183749 53 350 0.0 1.7 0.00 0.00 0.00 60 1014.9
20260510183413 54 268 0.9 5.2 0.00 0.00 0.00 58 1014.9
20260510183249 54 268 0.9 5.2 0.00 0.00 0.00 58 1014.9
20260510182749 55 100 0.9 8.7 0.00 0.00 0.00 59 1015.0
20260510182249 54 344 0.0 3.5 0.00 0.00 0.00 58 1014.9
20260510181749 54 23 0.0 0.9 0.00 0.00 0.00 58 1014.9
20260510181249 54 354 0.0 3.5 0.00 0.00 0.00 59 1014.9
20260510180749 55 342 0.0 3.5 0.00 0.00 0.00 58 1014.9
20260510180249 56 139 0.0 0.9 0.00 0.00 0.00 57 1014.9
20260510175749 56 126 0.0 2.6 0.00 0.00 0.00 58 1014.8
20260510175249 56 275 0.9 4.3 0.00 0.00 0.00 59 1014.9
20260510174749 57 9 0.9 4.3 0.00 0.00 0.00 54 1014.8
20260510174249 58 79 0.0 2.6 0.00 0.00 0.00 57 1014.9
20260510173749 57 319 0.0 2.6 0.00 0.00 0.00 59 1014.9
20260510173249 56 340 0.0 3.5 0.00 0.00 0.00 57 1015.1
20260510172749 56 320 0.0 0.9 0.00 0.00 0.00 62 1015.1
20260510172249 55 305 0.0 2.6 0.00 0.00 0.00 60 1015.1
20260510171749 55 32 0.0 4.3 0.00 0.00 0.00 60 1015.1
20260510171249 56 271 0.0 2.6 0.00 0.00 0.00 60 1015.1
20260510170749 56 273 0.0 0.9 0.00 0.00 0.00 61 1015.2
20260510170249 56 283 0.0 0.9 0.00 0.00 0.00 62 1015.2
20260510165749 57 290 0.9 4.3 0.00 0.00 0.00 59 1015.3
20260510165249 57 75 0.0 3.5 0.00 0.00 0.00 58 1015.5
20260510164749 58 342 0.0 4.3 0.00 0.00 0.00 57 1015.5
20260510164249 59 266 0.0 3.5 0.00 0.00 0.00 59 1015.4
20260510163749 59 312 0.0 2.6 0.00 0.00 0.00 60 1015.4
20260510163249 57 7 0.9 3.5 0.00 0.00 0.00 60 1015.4
20260510162749 56 88 0.0 3.5 0.00 0.00 0.00 63 1015.7
20260510162249 56 292 0.0 0.9 0.00 0.00 0.00 63 1015.7
20260510161749 56 356 0.9 4.3 0.00 0.00 0.00 59 1015.7
20260510161249 57 13 0.9 2.6 0.00 0.00 0.00 60 1015.7
20260510160749 58 349 0.9 4.3 0.00 0.00 0.00 61 1015.8
20260510160249 57 333 0.0 4.3 0.00 0.00 0.00 65 1015.8
20260510155749 56 319 0.0 1.7 0.00 0.00 0.00 64 1015.8
20260510155249 57 358 0.9 2.6 0.00 0.00 0.00 60 1015.9
20260510154749 57 94 0.9 4.3 0.00 0.00 0.00 61 1016.1
20260510154249 58 303 0.9 5.2 0.00 0.00 0.00 59 1016.0
20260510153749 58 73 0.9 3.5 0.00 0.00 0.00 58 1015.9
20260510153249 57 31 0.0 1.7 0.00 0.00 0.00 68 1016.1
20260510152749 56 98 0.9 0.9 0.00 0.00 0.00 65 1016.2
20260510152249 56 308 0.9 3.5 0.00 0.00 0.00 63 1016.2
20260510151749 57 298 0.0 3.5 0.00 0.00 0.00 63 1016.3
20260510151249 56 13 0.0 2.6 0.00 0.00 0.00 64 1016.4
20260510150941 56 297 0.0 2.6 0.00 0.00 0.00 66 1016.5
20260510150749 56 146 0.0 2.6 0.00 0.00 0.00 64 1016.4
20260510150249 56 297 0.0 2.6 0.00 0.00 0.00 66 1016.5
20260510145749 56 18 0.9 2.6 0.00 0.00 0.00 64 1016.6
20260510145249 56 15 0.9 5.2 0.00 0.00 0.00 66 1016.7
20260510144749 57 0 0.9 3.5 0.00 0.00 0.00 66 1016.7
20260510144249 57 83 0.9 4.3 0.00 0.00 0.00 66 1016.9
20260510143749 57 38 0.9 6.1 0.00 0.00 0.00 63 1016.8
20260510143249 58 89 0.9 2.6 0.00 0.00 0.00 66 1016.9
20260510142749 57 328 0.9 4.3 0.00 0.00 0.00 67 1016.9
20260510142249 56 8 0.9 3.5 0.00 0.00 0.00 68 1016.9
20260510141749 56 259 0.9 3.5 0.00 0.00 0.00 69 1017.1
20260510141249 56 350 0.9 2.6 0.00 0.00 0.00 68 1017.1
20260510140750 56 247 0.9 3.5 0.00 0.00 0.00 70 1017.3
20260510140250 55 36 0.9 2.6 0.00 0.00 0.00 68 1017.2
20260510135749 55 119 0.9 7.0 0.00 0.00 0.00 70 1017.2
20260510135250 56 76 0.9 4.3 0.00 0.00 0.00 69 1017.3
20260510134750 56 40 0.9 4.3 0.00 0.00 0.00 70 1017.3
20260510134250 55 18 0.9 5.2 0.00 0.00 0.00 69 1017.4
20260510133750 55 61 0.9 5.2 0.00 0.00 0.00 70 1017.3
20260510133250 55 274 0.9 2.6 0.00 0.00 0.00 71 1017.2
20260510132750 55 257 0.9 7.0 0.00 0.00 0.00 68 1017.2
20260510132250 55 31 0.9 7.0 0.00 0.00 0.00 71 1017.3
20260510131750 54 333 0.0 3.5 0.00 0.00 0.00 72 1017.1
20260510131250 53 263 0.9 3.5 0.00 0.00 0.00 75 1017.2
20260510130750 53 83 0.9 5.2 0.00 0.00 0.00 73 1017.2
20260510130250 53 84 0.9 2.6 0.00 0.00 0.00 76 1017.3
20260510125750 53 265 0.9 3.5 0.00 0.00 0.00 75 1017.3
20260510125250 53 154 0.9 3.5 0.00 0.00 0.00 74 1017.2
20260510124750 53 58 0.9 2.6 0.00 0.00 0.00 74 1017.4
20260510124250 52 250 0.9 3.5 0.00 0.00 0.00 75 1017.4
20260510123750 53 34 0.9 6.1 0.00 0.00 0.00 74 1017.6
20260510123250 53 118 0.9 4.3 0.00 0.00 0.00 74 1017.4
20260510122750 53 345 0.9 5.2 0.00 0.00 0.00 75 1017.5
20260510122250 53 314 0.9 7.0 0.00 0.00 0.00 77 1017.6
20260510121750 52 274 0.9 6.1 0.00 0.00 0.00 76 1017.8
20260510121250 52 28 0.9 5.2 0.00 0.00 0.00 76 1018.0
20260510120750 52 337 0.9 7.0 0.00 0.00 0.00 77 1017.9
20260510120250 52 148 0.9 5.2 0.00 0.00 0.00 76 1018.0
20260510115750 52 314 1.7 5.2 0.00 0.00 0.00 77 1018.0
20260510115250 52 79 1.7 6.1 0.00 0.00 0.00 76 1018.2
20260510114750 52 13 0.9 7.0 0.00 0.00 0.00 76 1018.2
20260510114250 52 301 1.7 4.3 0.00 0.00 0.00 77 1018.3
20260510113750 52 320 0.9 6.1 0.00 0.00 0.00 78 1018.3
20260510113250 52 347 0.9 2.6 0.00 0.00 0.00 79 1018.2
20260510112750 52 353 0.9 4.3 0.00 0.00 0.00 79 1018.3
20260510112250 51 243 0.9 5.2 0.00 0.00 0.00 78 1018.4
20260510111750 51 13 0.9 5.2 0.00 0.00 0.00 79 1018.5
20260510111728 50 267 0.9 3.5 0.00 0.00 0.00 81 1018.5
20260510111250 51 338 0.9 5.2 0.00 0.00 0.00 79 1018.5
20260510110750 51 353 0.9 2.6 0.00 0.00 0.00 80 1018.6
20260510110250 50 267 0.9 3.5 0.00 0.00 0.00 81 1018.5
20260510105750 50 98 0.9 4.3 0.00 0.00 0.00 81 1018.6
20260510105250 50 131 0.9 3.5 0.00 0.00 0.00 82 1018.8
20260510104750 50 257 0.9 5.2 0.00 0.00 0.00 82 1018.9
20260510104250 49 79 0.9 1.7 0.00 0.00 0.00 81 1018.8
20260510103750 49 312 0.9 5.2 0.00 0.00 0.00 82 1018.8
20260510103250 49 345 0.9 7.0 0.00 0.00 0.00 81 1018.9
20260510102750 49 273 0.9 3.5 0.00 0.00 0.00 82 1018.8
20260510102250 49 274 0.9 3.5 0.00 0.00 0.00 83 1018.8
20260510101750 49 104 0.9 6.1 0.00 0.00 0.00 82 1018.9
20260510101250 49 37 0.9 4.3 0.00 0.00 0.00 83 1018.9
20260510100750 49 72 0.9 9.6 0.00 0.00 0.00 82 1018.9
20260510100250 49 3 0.9 5.2 0.00 0.00 0.00 83 1019.0
20260510095750 49 24 0.9 4.3 0.00 0.00 0.00 83 1019.0
20260510095250 49 47 0.9 4.3 0.00 0.00 0.00 83 1018.9
20260510094750 49 97 0.9 7.0 0.00 0.00 0.00 83 1018.9
20260510094250 49 28 0.9 6.1 0.00 0.00 0.00 84 1018.9
20260510093750 49 117 0.9 4.3 0.00 0.00 0.00 83 1018.9
20260510093332 49 356 0.9 3.5 0.00 0.00 0.00 84 1018.9
20260510093250 49 356 0.9 3.5 0.00 0.00 0.00 84 1018.9
20260510092750 48 300 0.9 5.2 0.00 0.00 0.00 84 1018.9
20260510092250 48 323 0.9 2.6 0.00 0.00 0.00 85 1018.9
20260510092209 48 267 0.9 4.3 0.00 0.00 0.00 85 1018.9
20260510091750 48 267 0.9 4.3 0.00 0.00 0.00 85 1018.9
20260510091250 48 245 0.9 4.3 0.00 0.00 0.00 85 1019.0
20260510090750 48 84 0.9 9.6 0.00 0.00 0.00 85 1018.8
20260510090250 48 252 0.9 3.5 0.00 0.00 0.00 85 1018.9
20260510085750 48 281 0.9 5.2 0.00 0.00 0.00 85 1019.0
20260510085250 48 79 0.9 5.2 0.00 0.00 0.00 85 1019.0
20260510084750 48 90 0.9 5.2 0.00 0.00 0.00 85 1019.0
20260510084250 47 29 0.0 4.3 0.00 0.00 0.00 85 1019.1
20260510083750 47 27 0.9 3.5 0.00 0.00 0.00 86 1019.2
20260510083250 47 350 0.9 4.3 0.00 0.00 0.00 86 1019.2
20260510082750 47 18 0.9 6.1 0.00 0.00 0.00 86 1019.2
20260510082250 47 116 0.9 3.5 0.00 0.00 0.00 86 1019.2
20260510081750 47 18 0.9 5.2 0.00 0.00 0.00 86 1019.2
20260510081250 47 315 0.9 6.1 0.00 0.00 0.00 86 1019.3
20260510080750 47 54 1.7 6.1 0.00 0.00 0.00 86 1019.3
20260510080250 47 46 0.9 6.1 0.00 0.00 0.00 86 1019.2
20260510075750 47 252 0.9 3.5 0.00 0.00 0.00 86 1019.2
20260510075250 47 294 0.9 7.0 0.00 0.00 0.00 86 1019.2
20260510074750 47 337 0.9 5.2 0.00 0.00 0.00 86 1019.2
20260510074250 47 10 0.9 4.3 0.00 0.00 0.00 86 1019.1
20260510073750 47 306 0.9 5.2 0.00 0.00 0.00 86 1019.1
20260510073251 47 20 0.9 6.1 0.00 0.00 0.00 87 1019.1
20260510072750 47 328 0.9 5.2 0.00 0.00 0.00 87 1019.1
20260510072250 47 20 0.9 5.2 0.00 0.00 0.00 87 1018.9
20260510071750 47 340 0.9 5.2 0.00 0.00 0.00 87 1019.0
20260510071250 47 23 0.9 5.2 0.00 0.00 0.00 87 1019.0
20260510070750 47 45 0.9 3.5 0.00 0.00 0.00 87 1019.0
20260510070250 47 18 1.7 5.2 0.00 0.00 0.00 87 1019.0
20260510065750 47 32 0.9 7.8 0.00 0.00 0.00 87 1019.0
20260510065250 47 341 0.9 4.3 0.00 0.00 0.00 87 1018.9
20260510064750 47 347 1.7 9.6 0.00 0.00 0.00 87 1018.9
20260510064250 47 307 1.7 7.8 0.00 0.00 0.00 87 1018.8
20260510063750 47 125 0.9 4.3 0.00 0.00 0.00 87 1018.8
20260510063254 47 49 0.9 3.5 0.00 0.00 1.87 87 0.1
20260510063250 47 49 0.9 3.5 0.00 0.00 0.00 87 1018.7
20260510062750 47 21 0.9 5.2 0.00 0.00 0.00 87 1018.7
20260510062250 47 340 0.9 5.2 0.00 0.00 0.00 88 1018.7
20260510061750 47 76 1.7 7.0 0.00 0.00 0.00 87 1018.7
20260510061250 47 307 1.7 9.6 0.00 0.00 0.00 88 1018.5
20260510060750 47 0 1.7 7.8 0.00 0.00 0.00 88 1018.6
20260510060250 47 30 1.7 7.0 0.00 0.00 0.00 88 1018.5
20260510055750 47 318 1.7 5.2 0.00 0.00 0.00 88 1018.4
20260510055251 47 329 1.7 9.6 0.00 0.00 0.00 88 1018.6
20260510054750 47 59 1.7 8.7 0.00 0.00 0.00 88 1018.5
20260510054250 47 53 0.9 7.0 0.00 0.00 0.00 88 1018.5
20260510053750 47 31 0.9 3.5 0.00 0.00 0.00 88 1018.5
20260510053251 47 85 0.9 6.1 0.00 0.00 0.00 88 1018.5
20260510052751 47 348 0.9 7.8 0.00 0.00 0.00 88 1018.5
20260510052251 47 105 0.9 5.2 0.00 0.00 0.00 88 1018.4
20260510051751 47 165 0.9 4.3 0.00 0.00 0.00 88 1018.4
20260510051251 47 54 0.9 4.3 0.00 0.00 0.00 88 1018.5
20260510050751 47 310 1.7 7.0 0.00 0.00 0.00 88 1018.6
20260510050251 47 299 1.7 7.0 0.00 0.00 0.00 88 1018.6
20260510045751 47 354 0.9 6.1 0.00 0.00 0.00 88 1018.5
20260510045251 47 139 0.9 7.0 0.00 0.00 0.00 88 1018.7
20260510044751 47 206 0.9 2.6 0.00 0.00 0.00 88 1018.6
20260510044251 47 350 0.9 5.2 0.00 0.00 0.00 88 1018.7
20260510043751 47 307 0.9 6.1 0.00 0.00 0.00 88 1018.6
20260510043251 47 316 0.9 6.1 0.00 0.00 0.00 88 1018.6
20260510042751 47 12 0.9 6.1 0.00 0.00 0.00 88 1018.6
20260510042251 47 67 0.9 4.3 0.00 0.00 0.00 88 1018.8
20260510041751 47 267 0.9 5.2 0.00 0.00 0.00 88 1018.7
20260510041251 47 321 0.9 6.1 0.00 0.00 0.00 88 1018.8
20260510040751 47 23 0.9 6.1 0.00 0.00 0.00 88 1018.7
20260510040251 47 269 0.9 2.6 0.00 0.00 0.00 88 1018.8
20260510035751 47 347 0.9 6.1 0.00 0.00 0.00 88 1018.9
20260510035251 47 347 0.9 8.7 0.00 0.00 0.00 88 1018.9
20260510034751 47 351 0.9 4.3 0.00 0.00 0.00 88 1018.8
20260510034251 47 0 0.9 4.3 0.00 0.00 0.00 88 1019.0
20260510033751 47 293 0.9 6.1 0.00 0.00 0.00 88 1019.0
20260510033251 47 8 0.9 5.2 0.00 0.00 0.00 89 1019.0
20260510032751 47 229 0.9 5.2 0.00 0.00 0.00 89 1019.1
20260510032251 47 334 0.9 8.7 0.00 0.00 0.00 89 1019.0
20260510031751 47 332 0.9 7.8 0.00 0.01 0.00 89 1018.9
20260510031251 47 308 0.9 7.0 0.00 0.01 0.00 89 1019.0
20260510030751 47 273 0.9 6.1 0.00 0.01 0.00 89 1019.0
20260510030251 47 322 0.9 5.2 0.00 0.01 0.00 89 1019.1
20260510025751 47 323 0.9 5.2 0.00 0.01 0.00 89 1019.2
20260510025251 47 324 0.9 3.5 0.00 0.01 0.00 89 1019.2
20260510024751 47 327 0.0 2.6 0.00 0.01 0.00 89 1019.2
20260510024251 47 77 0.9 2.6 0.00 0.01 0.00 89 1019.2
20260510023751 47 311 0.9 4.3 0.00 0.01 0.00 89 1019.2
20260510023251 47 130 0.0 3.5 0.00 0.01 0.00 89 1019.2
20260510022751 47 99 0.9 3.5 0.00 0.01 0.00 88 1019.1
20260510022251 47 308 0.9 5.2 0.00 0.01 0.00 88 1019.0
20260510021751 47 246 0.9 4.3 0.00 0.01 0.00 88 1018.8
20260510021251 47 168 0.9 4.3 0.00 0.01 0.00 88 1018.9
20260510020751 47 318 0.9 5.2 0.00 0.01 0.00 88 1019.0
20260510020251 47 317 0.9 3.5 0.00 0.01 0.00 88 1019.0
20260510015751 47 277 0.9 7.8 0.00 0.01 0.00 88 1018.9
20260510015251 47 79 0.9 6.1 0.00 0.01 0.00 88 1019.0
20260510014751 47 153 0.9 5.2 0.00 0.01 0.00 88 1019.0
20260510014251 47 112 0.9 5.2 0.00 0.01 0.00 88 1019.0
20260510013751 47 34 0.9 7.0 0.00 0.01 0.00 88 1018.9
20260510013251 47 138 0.9 7.0 0.00 0.01 0.00 88 1019.2
20260510012751 47 109 1.7 4.3 0.00 0.01 0.00 88 1019.1
20260510012251 47 322 0.9 10.4 0.00 0.01 0.00 88 1019.1
20260510011751 47 44 0.9 6.1 0.00 0.01 0.00 88 1019.2
20260510011251 47 221 1.7 3.5 0.00 0.01 0.00 88 1019.3
20260510010751 47 330 0.9 6.1 0.00 0.01 0.00 88 1019.4
20260510010251 47 330 0.9 3.5 0.00 0.01 0.00 88 1019.5
20260510005751 48 338 0.9 5.2 0.00 0.01 0.00 87 1019.6
20260510005251 48 60 0.9 3.5 0.00 0.01 0.00 87 1019.4
20260510004751 48 115 0.9 1.7 0.00 0.01 0.00 87 1019.2
20260510004251 48 273 0.9 6.1 0.00 0.01 0.00 86 1018.9
20260510003751 48 276 0.9 6.1 0.00 0.01 0.00 86 1019.0
20260510003251 48 9 1.7 7.8 0.00 0.01 0.00 86 1018.9
20260510002751 48 349 0.9 9.6 0.00 0.01 0.00 86 1018.9
20260510002251 48 331 0.9 4.3 0.00 0.01 0.00 86 1018.9
20260510001751 48 285 0.9 6.1 0.00 0.01 0.00 86 1019.0
20260510001251 49 341 0.9 2.6 0.00 0.01 0.01 86 1018.9
20260510000751 49 347 0.9 7.0 0.00 0.01 0.01 86 1019.1
20260510000251 49 70 1.7 5.2 0.00 0.01 0.01 86 1018.9
20260509235751 49 25 0.9 4.3 0.00 0.01 0.01 86 1019.0
20260509235251 49 255 0.9 6.1 0.00 0.01 0.01 86 1019.0
20260509234751 49 329 0.9 7.0 0.00 0.01 0.01 86 1019.0
20260509234251 49 6 1.7 4.3 0.00 0.01 0.01 86 1018.9
20260509233751 49 282 0.9 6.1 0.00 0.01 0.01 86 1018.9
20260509233251 49 320 1.7 6.1 0.00 0.01 0.01 86 1018.9
20260509232751 49 344 1.7 12.2 0.00 0.01 0.01 86 1018.8
20260509232251 49 3 0.9 7.0 0.00 0.01 0.01 86 1018.8
20260509231751 50 293 1.7 6.1 0.00 0.01 0.01 86 1018.8
20260509231251 50 78 1.7 7.8 0.00 0.01 0.01 86 1018.8
20260509230751 50 340 1.7 7.8 0.00 0.01 0.01 86 1018.8
20260509230251 50 23 0.9 7.0 0.00 0.01 0.01 86 1018.8
20260509225751 50 138 0.9 7.0 0.00 0.01 0.01 85 1018.8
20260509225251 50 18 0.9 4.3 0.00 0.01 0.01 85 1018.7
20260509224751 51 270 0.9 4.3 0.00 0.01 0.01 85 1018.7
20260509224251 51 3 0.9 5.2 0.00 0.01 0.01 85 1018.7
20260509223751 51 8 0.9 5.2 0.00 0.01 0.01 84 1018.6
20260509223251 51 281 1.7 6.1 0.00 0.01 0.01 84 1018.7
20260509222751 51 335 1.7 7.8 0.00 0.01 0.01 84 1018.7
20260509222251 52 342 0.9 6.1 0.00 0.01 0.01 84 1018.9
20260509221751 52 344 1.7 9.6 0.00 0.01 0.01 84 1018.7
20260509221251 52 263 1.7 6.1 0.00 0.01 0.01 84 1018.7
20260509220751 52 327 1.7 7.0 0.00 0.01 0.01 84 1018.8
20260509220251 52 275 0.9 4.3 0.00 0.01 0.01 83 1018.7
20260509215751 53 309 1.7 8.7 0.00 0.01 0.01 83 1018.8
20260509215251 53 6 0.9 5.2 0.00 0.01 0.01 83 1018.7
20260509214751 53 23 0.9 3.5 0.00 0.01 0.01 83 1018.7
20260509214251 53 297 0.9 3.5 0.00 0.01 0.01 83 1018.7
20260509213751 54 116 0.9 4.3 0.00 0.01 0.01 83 1018.7
20260509213251 54 101 1.7 4.3 0.00 0.01 0.01 82 1018.6
20260509212751 54 223 0.9 6.1 0.00 0.01 0.01 82 1018.6
20260509212252 54 229 0.9 7.0 0.00 0.01 0.01 82 1018.5
20260509211751 54 121 0.9 6.1 0.00 0.01 0.01 82 1018.5
20260509211252 54 318 0.9 6.1 0.00 0.01 0.01 82 1018.4
20260509210751 55 338 0.9 4.3 0.00 0.01 0.01 82 1018.2
20260509210252 55 53 0.9 7.0 0.00 0.01 0.01 81 1018.1
20260509205752 55 117 0.9 7.8 0.00 0.01 0.01 81 1018.0
20260509205252 55 292 0.9 4.3 0.00 0.01 0.01 81 1018.1
20260509204752 55 20 0.9 3.5 0.00 0.01 0.01 81 1018.0
20260509204252 55 198 0.9 3.5 0.00 0.01 0.01 81 1018.1
20260509203752 56 68 0.9 5.2 0.00 0.01 0.01 81 1018.1
20260509203252 56 32 0.9 1.7 0.00 0.01 0.01 81 1018.1
20260509202752 56 295 0.9 5.2 0.00 0.01 0.01 81 1018.1
20260509202252 56 40 0.9 3.5 0.00 0.01 0.01 81 1018.1